sat.trackr.live / text

‹ back to catalog

KUIPER-00299

NORAD 68864 · 2026-095A

PAYLOAD ACTIVE UNKNOWN

§ Identity

Operator
Country
US
Launch date
2026-04-28
Launch site
AFETR
Launch vehicle
Mass (kg)
RCS (m²)

External: N2YO · Heavens-Above · Gunter

§ Orbital elements

Epoch: 2026-05-25T04:00:03.998880Z

Period
94.56 min
Inclination
51.8799°
Eccentricity
0.0008589
Mean motion
15.22872431 rev/d
Perigee alt
491.3 km
Apogee alt
503.1 km
Semi-major
6,875.3 km
B*
-7.2350e-2
RAAN
354.4595°
Arg perigee
227.6999°
Mean anomaly
234.9567°
Rev number
490

§ Raw data

KUIPER-002991 68864U 26095A   26145.16671295 -.01567829  00000+0 -72350-1 0  99962 68864  51.8799 354.4595 0008589 227.6999 234.9567 15.22872431  4906

JSON: /api/v1/satellites/68864 · /tle

For live sub-satellite position, see the globe view (requires WebGL).

§ Visibility from observer

Set your observer location to see the next 7 days of passes ≥ 10°. The values pass through the URL so the page stays shareable.

No JS? Fill the form by hand. The geolocation button needs JavaScript.